{"data":{"norad_id":63554,"epoch":"2026-05-25T03:50:52.317600Z","epoch_age_seconds":71752,"freshness":"FRESH","line1":"1 63554U 25075G   26145.16032775  .00199525  00000+0  15174-2 0  9991","line2":"2 63554  43.0018  53.0256 0001979 253.0368 107.0283 15.70903028 65271","mean_motion":15.70903028,"eccentricity":0.0001979,"inclination_deg":43.0018,"raan_deg":53.0256,"arg_perigee_deg":253.0368,"mean_anomaly_deg":107.0283,"bstar":0.0015174,"rev_number":6527,"period_min":91.667020454683,"perigee_km":354.98217373658,"apogee_km":357.64766980722,"semimajor_km":6734.4519217719,"source":"CELESTRAK","updated_at":"2026-05-25T13:38:20.042027Z"}}